This is the latest recevied weather packets stored in our database for station/object K4CRS-13. If no packets are shown the sender has not sent any weather packets the latest 10 day(s).
| Time | Temp. | Humidity | Pressure | Rain* | Wind** | Luminosity | Snow |
|---|---|---|---|---|---|---|---|
| 1787869210 | 30° C | 64% | 1049.6 hPa | 0 mm | - | 215 W/m² | - |
| 1787868909 | 30.56° C | 64% | 1049.2 hPa | 0 mm | - | 235 W/m² | - |
| 1787868608 | 30.56° C | 63% | 1049.3 hPa | 0 mm | - | 252 W/m² | - |
| 1787868307 | 30.56° C | 64% | 1049.4 hPa | 0 mm | - | 273 W/m² | - |
| 1787868002 | 30.56° C | 62% | 1049.3 hPa | 0 mm | - | 291 W/m² | - |
| 1787867698 | 30.56° C | 62% | 1049.4 hPa | 0 mm | - | 300 W/m² | - |
| 1787867398 | 30.56° C | 63% | 1049.5 hPa | 0 mm | - | 291 W/m² | - |
| 1787867094 | 30.56° C | 62% | 1049.3 hPa | 0 mm | - | 315 W/m² | - |
| 1787866788 | 31.11° C | 64% | 1049.6 hPa | 0 mm | - | 329 W/m² | - |
| 1787866488 | 31.11° C | 61% | 1049.4 hPa | 0 mm | - | 353 W/m² | - |
| 1787866186 | 30.56° C | 65% | 1049.3 hPa | 0 mm | - | 398 W/m² | - |
| 1787865882 | 30.56° C | 64% | 1049.5 hPa | 0 mm | - | 413 W/m² | - |
| 1787865578 | 30.56° C | 64% | 1049.5 hPa | 0 mm | - | 429 W/m² | - |
| 1787865272 | 31.11° C | 61% | 1049.5 hPa | 0 mm | - | 443 W/m² | - |
| 1787864968 | 31.11° C | 63% | 1049.7 hPa | 0 mm | - | 415 W/m² | - |
| 1787864664 | 31.11° C | 65% | 1049.7 hPa | 0 mm | - | 444 W/m² | - |
| 1787864363 | 31.11° C | 62% | 1049.7 hPa | 0 mm | - | 458 W/m² | - |
| 1787864063 | 30.56° C | 64% | 1049.8 hPa | 0 mm | - | 463 W/m² | - |
| 1787863761 | 31.11° C | 63% | 1049.6 hPa | 0 mm | - | 496 W/m² | - |
| 1787863460 | 30.56° C | 64% | 1049.9 hPa | 0 mm | - | 507 W/m² | - |
| 1787863157 | 30.56° C | 65% | 1049.8 hPa | 0 mm | - | 561 W/m² | - |
| 1787862853 | 30.56° C | 65% | 1049.8 hPa | 0 mm | - | 581 W/m² | - |
| 1787862552 | 31.11° C | 67% | 1049.8 hPa | 0 mm | - | 599 W/m² | - |
| 1787862247 | 30.56° C | 64% | 1049.9 hPa | 0 mm | - | 600 W/m² | - |
| 1787861942 | 30.56° C | 65% | 1050.1 hPa | 0 mm | - | 622 W/m² | - |
* Rain latest hour (hover to see other rain measurements)
** Current wind speed in m/s (hover to see current wind gust speed)